Norwich, United Kingdom

6:34 PM BST on August 20, 2017 (GMT +0100)
Norwich

Weather History for EGSH - September, 2013

Change the Weather History Date:

Saturday, September 7, 2013

  Actual Average Record
Temperature  
Mean Temperature 59 °F -  
Max Temperature 68 °F 62 °F 77 °F (2005)
Min Temperature 50 °F 49 °F 44 °F (2003)
Degree Days  
Heating Degree Days 6    
Growing Degree Days 9 (Base 50)    
Moisture  
Dew Point 48 °F    
Average Humidity 72    
Maximum Humidity 100    
Minimum Humidity 46    
Precipitation  
Precipitation 0.00 in - - ()
Sea Level Pressure  
Sea Level Pressure 29.94 in    
Wind  
Wind Speed 8 mph ()    
Max Wind Speed 17 mph    
Max Gust Speed -    
Visibility 6.0 miles    
Events Rain    
Averages and records for this station are not official NWS values.
T = Trace of Precipitation, MM = Missing Value Source: Averaged Metar Reports

Daily Weather History Graph

Daily Weather History Graph

Search for Another Location

Airport or City:

Trip Planner

Search our weather history database for the weather conditions in past years. The results will help you decide how hot, cold, wet, or windy it might be!

Date:

Astronomy

Sep. 07, 2013 Rise Set
Actual Time 6:15 AM BST 7:28 PM BST
Civil Twilight 5:40 AM BST 8:03 PM BST
Nautical Twilight 4:57 AM BST 8:46 PM BST
Astronomical Twilight 4:10 AM BST 9:32 PM BST
Moon 8:37 AM BST (9/7) 7:52 PM BST (9/7)
Length of Visible Light 14h 23m
Length of Day
13h 13m
Waxing Crescent, 4% of the Moon is Illuminated
Sep 7
Waxing Crescent
Sep 12
First Quarter
Sep 19
Full
Sep 27
Last Quarter
Oct 5
New

Hourly Weather History & Observations

Time (BST) Temp. Dew Point Humidity Pressure Visibility Wind Dir Wind Speed Gust Speed Precip Events Conditions
12:20 AM 51.8 °F 50.0 °F 94% 29.83 in 4.3 mi South 3.5 mph - N/A   Unknown
12:50 AM 50.0 °F 50.0 °F 100% 29.83 in 3.7 mi South 5.8 mph - N/A   Unknown
1:20 AM 50.0 °F 48.2 °F 94% 29.83 in 3.7 mi South 5.8 mph - N/A   Unknown
1:50 AM 50.0 °F 50.0 °F 100% 29.86 in 4.3 mi South 6.9 mph - N/A   Unknown
2:20 AM 50.0 °F 50.0 °F 100% 29.86 in 5.6 mi South 6.9 mph - N/A   Unknown
2:50 AM 50.0 °F 50.0 °F 100% 29.86 in 6.2 mi South 6.9 mph - N/A   Unknown
3:20 AM 50.0 °F 50.0 °F 100% 29.86 in 6.2 mi South 6.9 mph - N/A   Unknown
3:50 AM 51.8 °F 50.0 °F 94% 29.86 in 6.2 mi South 6.9 mph - N/A   Unknown
4:20 AM 51.8 °F 50.0 °F 94% 29.89 in 6.2 mi SSE 6.9 mph - N/A   Unknown
4:50 AM 53.6 °F 50.0 °F 88% 29.86 in 6.2 mi South 6.9 mph - N/A Rain Light Rain
5:20 AM 51.8 °F 50.0 °F 94% 29.89 in 6.2 mi South 4.6 mph - N/A   Unknown
5:50 AM 51.8 °F 50.0 °F 94% 29.89 in - South 3.5 mph - N/A   Clear
6:20 AM 50.0 °F 50.0 °F 100% 29.89 in - South 3.5 mph - N/A   Clear
6:50 AM 50.0 °F 50.0 °F 100% 29.89 in 6.2 mi SSE 2.3 mph - N/A   Partly Cloudy
7:20 AM 50.0 °F 50.0 °F 100% 29.92 in 6.2 mi SSE 4.6 mph - N/A   Partly Cloudy
8:20 AM 57.2 °F 51.8 °F 82% 29.92 in - South 8.1 mph - N/A   Clear
8:50 AM 59.0 °F 50.0 °F 72% 29.92 in - South 10.4 mph - N/A   Clear
9:20 AM 60.8 °F 50.0 °F 68% 29.92 in 6.2 mi South 12.7 mph - N/A   Partly Cloudy
9:50 AM 62.6 °F 48.2 °F 59% 29.92 in 6.2 mi South 10.4 mph - N/A   Partly Cloudy
10:20 AM 60.8 °F 48.2 °F 63% 29.95 in 6.2 mi South 11.5 mph - N/A   Partly Cloudy
10:50 AM 62.6 °F 50.0 °F 63% 29.95 in 6.2 mi South 11.5 mph - N/A   Partly Cloudy
11:20 AM 62.6 °F 48.2 °F 59% 29.95 in 6.2 mi South 13.8 mph - N/A   Partly Cloudy
11:50 AM 64.4 °F 44.6 °F 49% 29.95 in 6.2 mi South 17.3 mph - N/A   Partly Cloudy
12:20 PM 66.2 °F 44.6 °F 46% 29.95 in 6.2 mi SSE 16.1 mph - N/A   Partly Cloudy
12:50 PM 66.2 °F 46.4 °F 49% 29.95 in 6.2 mi South 12.7 mph - N/A   Partly Cloudy
1:20 PM 64.4 °F 46.4 °F 52% 29.95 in 6.2 mi South 15.0 mph - N/A   Scattered Clouds
1:50 PM 64.4 °F 46.4 °F 52% 29.95 in 6.2 mi South 16.1 mph - N/A   Scattered Clouds
2:20 PM 66.2 °F 48.2 °F 52% 29.95 in 6.2 mi SSW 11.5 mph - N/A   Scattered Clouds
2:50 PM 64.4 °F 48.2 °F 56% 29.95 in 6.2 mi South 12.7 mph - N/A   Scattered Clouds
3:20 PM 68.0 °F 48.2 °F 49% 29.95 in 6.2 mi South 13.8 mph - N/A   Scattered Clouds
3:50 PM 64.4 °F 48.2 °F 56% 29.98 in 6.2 mi SSE 15.0 mph - N/A   Scattered Clouds
4:20 PM 64.4 °F 48.2 °F 56% 29.98 in 6.2 mi South 12.7 mph - N/A   Scattered Clouds
4:50 PM 64.4 °F 46.4 °F 52% 29.98 in 6.2 mi South 16.1 mph - N/A   Partly Cloudy
5:20 PM 64.4 °F 46.4 °F 52% 29.98 in 6.2 mi South 12.7 mph - N/A   Partly Cloudy
5:50 PM 64.4 °F 44.6 °F 49% 29.98 in 6.2 mi South 13.8 mph - N/A   Partly Cloudy
6:20 PM 64.4 °F 46.4 °F 52% 29.98 in 6.2 mi South 12.7 mph - N/A   Partly Cloudy
6:50 PM 62.6 °F 44.6 °F 52% 29.98 in 6.2 mi SSW 12.7 mph - N/A   Partly Cloudy
7:20 PM 60.8 °F 44.6 °F 55% 29.98 in 6.2 mi South 8.1 mph - N/A   Partly Cloudy
7:50 PM 59.0 °F 44.6 °F 59% 30.01 in 6.2 mi South 8.1 mph - N/A   Partly Cloudy
8:20 PM 57.2 °F 44.6 °F 63% 30.01 in 6.2 mi South 6.9 mph - N/A   Partly Cloudy
8:50 PM 55.4 °F 44.6 °F 67% 30.04 in - South 8.1 mph - N/A   Clear
9:20 PM 55.4 °F 44.6 °F 67% 30.04 in - South 8.1 mph - N/A   Clear
9:50 PM 55.4 °F 44.6 °F 67% 30.04 in 6.2 mi South 6.9 mph - N/A   Unknown
10:20 PM 53.6 °F 44.6 °F 72% 30.04 in 6.2 mi South 6.9 mph - N/A   Unknown
10:50 PM 51.8 °F 44.6 °F 76% 30.04 in 6.2 mi South 6.9 mph - N/A   Unknown
11:20 PM 51.8 °F 44.6 °F 76% 30.04 in 6.2 mi SSW 5.8 mph - N/A   Unknown
11:50 PM 50.0 °F 44.6 °F 82% 30.04 in 6.2 mi South 4.6 mph - N/A   Unknown